Content
SEND FEEDBACK

Daily
Averages
Monthly
Summary
United States of America

TAMUNING, GUAM


Home > North America > United States > Guam
Elevation: 250 feet     Latitude: 13 29N     Longitude: 144 47E

WEATHER
 
SELECT A DAY
Number of Records: 356,513;   Date Range: 1/1/95 - 12/18/14
 
SHARE

PRINT THIS DATA

[ ← Previous Day ]
WEATHER ALMANAC - NOVEMBER 6, 2013
[ Next Day → ]
[ °C ]   °F
Weather ElementAverageHighLow
Temperature81.2 °F84.6 °F (10:58 am)77 °F (10:51 pm)
Dewpoint78 °F79.2 °F (1:58 pm)76.3 °F (10:58 pm)
Humidity90.1 %100 % (4:39 am)79 % (2:48 pm)
Barometer29.85 in29.90 in (8:33 am)29.78 in (3:58 pm)
Wind Speed15.9 mph25.3 mph (6:58 pm)
Wind Gust32.2 mph (7:01 pm)
Weather ElementAverage
Visibility9.4 mi
Wind DirectionENE (80.1 °)

Weather ElementTotal
Precipitation0.18 in
Cooling Degree Days15.8 (Base 65)
Growing Degree Days30.8 (Base 50)
Averaged from 101 records on November 6, 2013
WEATHER CONDITIONS BREAKOUT
WIND DIRECTION BREAKOUT
WEATHER BY HOUR - NOVEMBER 6, 2013
[ °C ]   °F
Local TimeTemperatureDewpointHumidityBarometerVisibilityWind DirectionWind SpeedGust SpeedPrecipitationEventsConditions
1:58 AM80.2 °F78.1 °F93 %29.81 in10.0 miEast (80°)11.5 mphScattered Clouds
2:13 AM80.6 °F78.8 °F94 %29.84 in10.0 miEast (80°)13.8 mphMostly Cloudy
2:18 AM80.6 °F78.8 °F94 %29.84 in10.0 miEast (80°)15.0 mph20.7 mphScattered Clouds
2:58 AM80.1 °F78.4 °F95 %29.79 in10.0 miENE (70°)18.4 mphScattered Clouds
3:03 AM80.6 °F78.8 °F94 %29.82 in10.0 miEast (90°)16.1 mph21.9 mphMostly Cloudy
3:08 AM80.6 °F77.0 °F89 %29.83 in10.0 miEast (80°)15.0 mph21.9 mphScattered Clouds
3:58 AM79.7 °F77.7 °F94 %29.79 in10.0 miEast (90°)10.4 mphScattered Clouds
4:39 AM78.8 °F78.8 °F100 %29.83 in6.0 miESE (110°)8.1 mphRainRain
4:44 AM78.8 °F78.8 °F100 %29.83 in5.0 miEast (90°)11.5 mphRainLight Rain
4:49 AM78.8 °F78.8 °F100 %29.83 in9.0 miEast (80°)12.7 mphMostly Cloudy
4:58 AM79.2 °F78.3 °F97 %29.81 in10.0 miEast (90°)13.8 mph0.02 inMostly Cloudy
5:03 AM78.8 °F78.8 °F100 %29.82 in10.0 miEast (90°)13.8 mphScattered Clouds
5:58 AM79.5 °F77.2 °F93 %29.82 in10.0 miEast (90°)16.1 mph21.9 mphScattered Clouds
6:13 AM80.6 °F77.0 °F89 %29.85 in10.0 miEast (90°)13.8 mphMostly Cloudy
6:18 AM80.6 °F77.0 °F89 %29.85 in10.0 miEast (90°)15.0 mphMostly Cloudy
6:28 AM80.6 °F77.0 °F89 %29.86 in10.0 miEast (90°)17.3 mph25.3 mphMostly Cloudy
6:33 AM80.6 °F77.0 °F89 %29.87 in10.0 miEast (80°)18.4 mph25.3 mphMostly Cloudy
6:38 AM80.6 °F77.0 °F89 %29.87 in10.0 miEast (80°)16.1 mph23.0 mphScattered Clouds
6:58 AM79.7 °F77.9 °F94 %29.84 in10.0 miEast (80°)12.7 mphScattered Clouds
7:08 AM80.6 °F77.0 °F89 %29.88 in10.0 miEast (90°)11.5 mphMostly Cloudy
7:28 AM80.6 °F78.8 °F94 %29.88 in10.0 miEast (90°)12.7 mphScattered Clouds
7:38 AM80.6 °F78.8 °F94 %29.89 in10.0 miEast (90°)12.7 mphMostly Cloudy
7:48 AM80.6 °F78.8 °F94 %29.89 in10.0 miEast (80°)15.0 mphMostly Cloudy
7:58 AM81.0 °F78.1 °F91 %29.86 in10.0 miEast (80°)11.5 mphMostly Cloudy
8:33 AM80.6 °F78.8 °F94 %29.90 in10.0 miEast (90°)13.8 mph21.9 mphMostly Cloudy
8:38 AM82.4 °F78.8 °F89 %29.90 in10.0 miEast (90°)16.1 mphMostly Cloudy
8:48 AM82.4 °F77.0 °F84 %29.90 in10.0 miEast (90°)15.0 mphScattered Clouds
8:58 AM83.1 °F78.4 °F86 %29.87 in10.0 miEast (90°)16.1 mphPartly Cloudy
9:58 AM82.9 °F77.9 °F85 %29.87 in10.0 miEast (80°)13.8 mph19.6 mphScattered Clouds
10:58 AM84.6 °F79.0 °F83 %29.86 in10.0 miEast (80°)11.5 mph23.0 mphMostly Cloudy
11:03 AM84.2 °F78.8 °F84 %29.87 in10.0 miEast (80°)16.1 mph23.0 mphMostly Cloudy
11:08 AM84.2 °F78.8 °F84 %29.87 in10.0 miEast (80°)15.0 mph19.6 mphMostly Cloudy
11:13 AM84.2 °F78.8 °F84 %29.88 in10.0 miEast (80°)15.0 mphMostly Cloudy
11:18 AM84.2 °F78.8 °F84 %29.88 in10.0 miEast (80°)15.0 mphMostly Cloudy
11:28 AM84.2 °F78.8 °F84 %29.87 in10.0 miENE (70°)15.0 mphMostly Cloudy
11:33 AM84.2 °F78.8 °F84 %29.87 in10.0 miENE (70°)15.0 mphScattered Clouds
11:58 AM84.0 °F79.0 °F85 %29.84 in10.0 miEast (90°)15.0 mphScattered Clouds
12:13 PM84.2 °F78.8 °F84 %29.86 in10.0 miEast (80°)17.3 mph24.2 mphMostly Cloudy
12:33 PM84.2 °F78.8 °F84 %29.85 in10.0 miENE (70°)16.1 mphMostly Cloudy
12:48 PM82.4 °F78.8 °F89 %29.85 in9.0 miENE (70°)17.3 mph24.2 mphScattered Clouds
12:58 PM82.0 °F77.5 °F86 %29.81 in10.0 miEast (80°)16.1 mph23.0 mphMostly Cloudy
1:03 PM82.4 °F78.8 °F89 %29.84 in10.0 miEast (80°)13.8 mphMostly Cloudy
1:08 PM82.4 °F78.8 °F89 %29.84 in10.0 miENE (70°)15.0 mphScattered Clouds
1:13 PM82.4 °F78.8 °F89 %29.84 in10.0 miEast (80°)13.8 mphMostly Cloudy
1:28 PM84.2 °F78.8 °F84 %29.83 in10.0 miEast (80°)16.1 mph24.2 mphScattered Clouds
1:58 PM83.8 °F79.2 °F86 %29.79 in10.0 miEast (90°)15.0 mph21.9 mphMostly Cloudy
2:23 PM84.2 °F78.8 °F84 %29.81 in10.0 miENE (70°)16.1 mph23.0 mphMostly Cloudy
2:28 PM84.2 °F78.8 °F84 %29.81 in10.0 miENE (70°)17.3 mph23.0 mphScattered Clouds
2:33 PM84.2 °F78.8 °F84 %29.81 in10.0 miENE (70°)18.4 mph24.2 mphMostly Cloudy
2:43 PM82.4 °F77.0 °F84 %29.81 in10.0 miEast (80°)18.4 mph25.3 mphScattered Clouds
2:48 PM84.2 °F77.0 °F79 %29.81 in10.0 miEast (100°)16.1 mph25.3 mphMostly Cloudy
2:58 PM84.2 °F78.8 °F84 %29.79 in10.0 miEast (90°)16.1 mphScattered Clouds
3:13 PM84.2 °F78.8 °F84 %29.82 in10.0 miEast (80°)16.1 mph23.0 mphMostly Cloudy
3:28 PM84.2 °F78.8 °F84 %29.81 in10.0 miEast (80°)15.0 mphMostly Cloudy
3:33 PM84.2 °F77.0 °F79 %29.81 in10.0 miEast (80°)15.0 mphMostly Cloudy
3:48 PM82.4 °F77.0 °F84 %29.81 in10.0 miEast (80°)17.3 mph21.9 mphMostly Cloudy
3:53 PM82.4 °F77.0 °F84 %29.81 in10.0 miENE (70°)17.3 mphMostly Cloudy
3:58 PM82.4 °F77.5 °F85 %29.78 in10.0 miEast (80°)17.3 mph21.9 mphMostly Cloudy
4:04 PM82.4 °F78.8 °F89 %29.82 in10.0 miENE (70°)18.4 mph23.0 mphRainLight Rain
4:09 PM82.4 °F78.8 °F89 %29.82 in4.0 miENE (70°)17.3 mphRainLight Rain
4:18 PM80.6 °F78.8 °F94 %29.82 in8.0 miENE (70°)18.4 mph23.0 mphMostly Cloudy
4:48 PM80.6 °F78.8 °F94 %29.83 in10.0 miEast (80°)18.4 mph24.2 mphMostly Cloudy
4:58 PM81.5 °F77.9 °F89 %29.81 in10.0 miEast (90°)16.1 mph24.2 mph0.02 inMostly Cloudy
5:03 PM80.6 °F77.0 °F89 %29.83 in10.0 miEast (80°)15.0 mphScattered Clouds
5:13 PM80.6 °F78.8 °F94 %29.83 in10.0 miEast (80°)16.1 mphMostly Cloudy
5:18 PM80.6 °F78.8 °F94 %29.84 in10.0 miENE (70°)16.1 mphMostly Cloudy
5:19 PM80.6 °F78.8 °F94 %29.84 in9.0 miENE (70°)18.4 mphRainLight Rain
5:24 PM80.6 °F78.8 °F94 %29.84 in8.0 miEast (80°)15.0 mphRainLight Rain
5:29 PM80.6 °F78.8 °F94 %29.84 in9.0 miEast (80°)17.3 mphRainLight Rain
5:30 PM80.6 °F78.8 °F94 %29.84 in10.0 miEast (80°)17.3 mphMostly Cloudy
5:35 PM80.6 °F77.0 °F89 %29.84 in10.0 miEast (80°)20.7 mphMostly Cloudy
5:40 PM80.6 °F77.0 °F89 %29.84 in10.0 miEast (80°)17.3 mph24.2 mphMostly Cloudy
5:50 PM80.6 °F78.8 °F94 %29.84 in10.0 miENE (70°)19.6 mphMostly Cloudy
5:55 PM80.6 °F78.8 °F94 %29.84 in10.0 miENE (70°)17.3 mphMostly Cloudy
5:58 PM80.6 °F78.1 °F92 %29.81 in10.0 miEast (80°)17.3 mph0.00 inMostly Cloudy
6:03 PM80.6 °F77.0 °F89 %29.85 in10.0 miEast (80°)17.3 mphMostly Cloudy
6:08 PM80.6 °F77.0 °F89 %29.85 in10.0 miEast (80°)18.4 mphMostly Cloudy
6:18 PM80.6 °F78.8 °F94 %29.85 in10.0 miEast (80°)15.0 mphMostly Cloudy
6:23 PM80.6 °F78.8 °F94 %29.85 in10.0 miENE (70°)16.1 mphMostly Cloudy
6:33 PM80.6 °F77.0 °F89 %29.85 in10.0 miENE (70°)19.6 mph25.3 mphScattered Clouds
6:38 PM80.6 °F77.0 °F89 %29.85 in10.0 miEast (80°)20.7 mph24.2 mphMostly Cloudy
6:48 PM80.6 °F77.0 °F89 %29.86 in10.0 miENE (70°)19.6 mphScattered Clouds
6:58 PM80.6 °F77.9 °F91 %29.83 in10.0 miENE (70°)25.3 mph31.1 mphScattered Clouds
7:01 PM80.6 °F77.0 °F89 %29.86 in7.0 miEast (80°)23.0 mph32.2 mphRainLight Rain
7:11 PM78.8 °F77.0 °F94 %29.86 in6.0 miENE (70°)15.0 mph32.2 mphRainLight Rain
7:15 PM78.8 °F77.0 °F94 %29.86 in10.0 miENE (70°)13.8 mphScattered Clouds
7:58 PM79.9 °F78.1 °F94 %29.84 in10.0 miENE (70°)19.6 mph24.2 mph0.02 inMostly Cloudy
8:43 PM80.6 °F77.0 °F89 %29.88 in10.0 miEast (80°)18.4 mphMostly Cloudy
8:58 PM80.4 °F76.8 °F89 %29.86 in10.0 miENE (70°)21.9 mph25.3 mphMostly Cloudy
9:08 PM80.6 °F77.0 °F89 %29.89 in10.0 miEast (80°)16.1 mphMostly Cloudy
9:13 PM80.6 °F77.0 °F89 %29.88 in10.0 miEast (80°)20.7 mph27.6 mphMostly Cloudy
9:23 PM78.8 °F77.0 °F94 %29.88 in10.0 miENE (70°)16.1 mph27.6 mphMostly Cloudy
9:58 PM79.7 °F76.5 °F90 %29.86 in10.0 miEast (80°)19.6 mph25.3 mphScattered Clouds
10:41 PM78.8 °F77.0 °F94 %29.89 in4.0 miEast (80°)19.6 mph19.6 mphRainRain
10:46 PM78.8 °F77.0 °F94 %29.89 in2.0 miEast (80°)13.8 mph25.3 mphRainHeavy Rain
10:51 PM77.0 °F77.0 °F100 %29.89 in2.5 miEast (90°)11.5 mph25.3 mphRainHeavy Rain
10:56 PM77.0 °F77.0 °F100 %29.89 in6.0 miEast (80°)12.7 mphRainLight Rain
10:58 PM77.2 °F76.3 °F97 %29.86 in8.0 miEast (80°)12.7 mph0.12 inRainLight Rain
10:59 PM77.0 °F77.0 °F100 %29.89 in9.0 miEast (80°)11.5 mphMostly Cloudy
11:09 PM78.8 °F77.0 °F94 %29.89 in10.0 miEast (90°)10.4 mphMostly Cloudy
11:58 PM80.1 °F77.0 °F90 %29.86 in10.0 miEast (80°)16.1 mph0.00 inPartly Cloudy
Hourly data recorded from PGUA, located miles away from Tamuning, Guam







STORIES FROM OUR PARTNERS